TimeCDT,TemperatureF,Dew PointF,Humidity,Sea Level PressureIn,VisibilityMPH,Wind Direction,Wind SpeedMPH,Gust SpeedMPH,PrecipitationIn,Events,Conditions,WindDirDegrees,DateUTC
12:27 AM,71.6,66.2,83,29.97,10.0,SE,17.3,-,N/A,,Overcast,140,2013-03-31 05:27:00
12:53 AM,72.0,66.9,84,29.96,10.0,SSE,16.1,-,N/A,,Overcast,150,2013-03-31 05:53:00
1:53 AM,72.0,66.0,81,29.93,10.0,SSE,13.8,21.9,N/A,,Overcast,150,2013-03-31 06:53:00
2:53 AM,72.0,66.0,81,29.91,10.0,SSE,13.8,-,N/A,,Overcast,150,2013-03-31 07:53:00
3:15 AM,71.6,66.2,83,29.91,10.0,SSE,12.7,-,N/A,,Scattered Clouds,150,2013-03-31 08:15:00
3:53 AM,71.1,66.0,84,29.90,10.0,SE,11.5,-,N/A,,Clear,140,2013-03-31 08:53:00
4:53 AM,70.0,66.0,87,29.88,10.0,SE,11.5,-,N/A,,Partly Cloudy,140,2013-03-31 09:53:00
5:16 AM,69.8,66.2,88,29.88,10.0,SE,12.7,-,N/A,,Mostly Cloudy,140,2013-03-31 10:16:00
5:53 AM,70.0,66.0,87,29.88,10.0,SSE,11.5,-,N/A,,Mostly Cloudy,150,2013-03-31 10:53:00
6:53 AM,70.0,66.0,87,29.88,10.0,SSE,12.7,-,N/A,,Overcast,150,2013-03-31 11:53:00
7:53 AM,70.0,66.9,90,29.90,10.0,SSE,12.7,-,N/A,,Overcast,150,2013-03-31 12:53:00
8:53 AM,72.0,66.9,84,29.92,10.0,SSE,15.0,20.7,N/A,,Overcast,150,2013-03-31 13:53:00
9:29 AM,73.4,66.2,78,29.91,10.0,SSE,17.3,21.9,N/A,,Scattered Clouds,150,2013-03-31 14:29:00
9:53 AM,75.0,66.0,73,29.91,10.0,SSE,16.1,21.9,N/A,,Scattered Clouds,150,2013-03-31 14:53:00
10:53 AM,80.1,66.0,62,29.91,10.0,SSE,15.0,-,N/A,,Clear,160,2013-03-31 15:53:00
11:53 AM,82.9,64.9,54,29.90,10.0,SSE,16.1,25.3,N/A,,Clear,150,2013-03-31 16:53:00
12:53 PM,86.0,64.9,49,29.88,10.0,South,12.7,21.9,N/A,,Partly Cloudy,180,2013-03-31 17:53:00
1:53 PM,88.0,64.9,46,29.85,10.0,SE,16.1,24.2,N/A,,Clear,140,2013-03-31 18:53:00
2:53 PM,90.0,64.0,42,29.80,10.0,SE,11.5,25.3,N/A,,Clear,140,2013-03-31 19:53:00
3:53 PM,90.0,66.9,46,29.76,10.0,ESE,15.0,20.7,N/A,,Clear,120,2013-03-31 20:53:00
4:53 PM,89.1,66.9,48,29.75,10.0,SE,17.3,23.0,N/A,,Clear,130,2013-03-31 21:53:00
5:53 PM,86.0,66.0,51,29.74,10.0,SE,17.3,26.5,N/A,,Clear,130,2013-03-31 22:53:00
6:53 PM,82.0,66.9,60,29.74,10.0,SE,19.6,-,N/A,,Clear,140,2013-03-31 23:53:00
7:53 PM,79.0,66.0,64,29.78,10.0,SE,18.4,-,N/A,,Clear,130,2013-04-01 00:53:00
8:53 PM,75.9,64.9,69,29.78,10.0,SE,15.0,-,N/A,,Clear,130,2013-04-01 01:53:00
9:53 PM,75.0,66.0,73,29.86,10.0,East,11.5,-,N/A,,Clear,80,2013-04-01 02:53:00
10:53 PM,75.0,66.0,73,29.91,10.0,East,16.1,23.0,N/A,,Clear,80,2013-04-01 03:53:00
11:53 PM,73.0,66.9,81,29.92,10.0,East,17.3,26.5,N/A,,Clear,100,2013-04-01 04:53:00